Regional Weather Roundup
Issued by NWS Little Rock, AR

Home | Current Version | Previous Version | Graphics & Text | Print | Product List | Glossary On
Versions: 1 2 3 4 5 6 7 8 9 10 11 12 13 14 15 16 17 18 19 20 21 22 23 24 25 26 27 28 29 30 31 32
000
ASUS44 KLZK 261205
RWRLZK

WEATHER ROUNDUP FOR ARKANSAS
NATIONAL WEATHER SERVICE LITTLE ROCK AR
700 AM CDT FRI MAY 26 2017

NOTE: "FAIR" INDICATES FEW OR NO CLOUDS BELOW 12,000 FEET WITH NO
SIGNIFICANT WEATHER AND/OR OBSTRUCTIONS TO VISIBILITY.

ARZ001-003-010-029-261300-
NORTHWEST ARKANSAS

CITY           SKY/WX    TMP DP  RH WIND       PRES   REMARKS
FAYETTEVILLE   MOCLDY    68  62  81 VRB3      29.71R
6HR MIN TEMP:  68; 6HR MAX TEMP:  71;

FORT SMITH     MOCLDY    66  61  84 NE3       29.70R
6HR MIN TEMP:  65; 6HR MAX TEMP:  69;

HARRISON       PTSUNNY   63  61  93 NE3       29.77R
6HR MIN TEMP:  62; 6HR MAX TEMP:  65;

BENTONVILLE    MOCLDY    66  61  82 S6        29.70R
6HR MIN TEMP:  64; 6HR MAX TEMP:  72;

ROGERS         MOCLDY    66  62  87 SE7       29.71R
6HR MIN TEMP:  64; 6HR MAX TEMP:  68; 6HR PCP:  0.01;

SILOAM SPGS    MOCLDY    70  57  64 S12       29.69R
6HR MIN TEMP:  70; 6HR MAX TEMP:  72;

HIGHFILL       MOCLDY    69  63  81 S12       29.69R
6HR MIN TEMP:  64; 6HR MAX TEMP:  71;

SPRINGDALE     MOCLDY    70  61  73 SE8       29.72S
$$

ARZ004-005-016-261300-
NORTH CENTRAL ARKANSAS

CITY           SKY/WX    TMP DP  RH WIND       PRES   REMARKS
BATESVILLE     CLOUDY    68  63  83 SE5       29.82R
6HR MIN TEMP:  64; 6HR MAX TEMP:  68;

FLIPPIN        CLOUDY    64  57  77 E5        29.75R
6HR MIN TEMP:  63; 6HR MAX TEMP:  66;

MTN HOME       CLOUDY    65  60  84 S5        29.77R
6HR MIN TEMP:  63; 6HR MAX TEMP:  65; 6HR PCP: TRACE;

$$

ARZ040-041-261300-
WEST CENTRAL ARKANSAS

CITY           SKY/WX    TMP DP  RH WIND       PRES   REMARKS
MENA           MOCLDY    70  66  88 W6G28     29.78R
MOUNT IDA      MOCLDY    70  60  70 VRB3      29.76R
6HR MIN TEMP:  70; 6HR MAX TEMP:  75;

$$

ARZ009-017-025-026-028-261300-
NORTHEAST ARKANSAS

CITY           SKY/WX    TMP DP  RH WIND       PRES   REMARKS
JONESBORO      MOSUNNY   65  60  84 S8        29.84S
6HR MIN TEMP:  61; 6HR MAX TEMP:  65;

NEWPORT        PTSUNNY   68  63  84 S15       29.82S
6HR MIN TEMP:  65; 6HR MAX TEMP:  68;

WALNUT RIDGE   MOSUNNY   66  57  72 S13       29.81R
6HR MIN TEMP:  64; 6HR MAX TEMP:  66;

BLYTHEVILLE    SUNNY     66  59  78 S9        29.88R
6HR MIN TEMP:  64; 6HR MAX TEMP:  66;

$$

ARZ022-023-033-042-044-261300-
CENTRAL ARKANSAS

CITY           SKY/WX    TMP DP  RH WIND       PRES   REMARKS
LITTLE ROCK    PTSUNNY   68  65  90 S15G22    29.80S
6HR MIN TEMP:  65; 6HR MAX TEMP:  68;

N LITTLE ROCK    N/A     68  63  86 S10G23    29.80R
6HR MIN TEMP:  67; 6HR MAX TEMP:  69;

JACKSONVILLE   MOSUNNY   69  64  84 S9        29.81R
6HR MIN TEMP:  67; 6HR MAX TEMP:  69;

CONWAY           N/A     70  63  78 S12       29.78R
SEARCY         MOSUNNY   68  66  93 S12       29.83R
6HR MIN TEMP:  63; 6HR MAX TEMP:  68;

HOT SPRINGS    MOCLDY    68  64  87 S7        29.81R
6HR MIN TEMP:  68; 6HR MAX TEMP:  72;

RUSSELLVILLE   SUNNY     68  60  75 VRB3      29.75R
6HR MIN TEMP:  66; 6HR MAX TEMP:  70;

CLINTON        FAIR      66  63  88 VRB5      29.79R
$$

ARZ036-261300-
EAST ARKANSAS

CITY           SKY/WX    TMP DP  RH WIND       PRES   REMARKS
WEST MEMPHIS   SUNNY     67  63  87 S12       29.87R
6HR MIN TEMP:  62; 6HR MAX TEMP:  67;

$$

ARZ050-053-066-070-073-261300-
SOUTHWEST ARKANSAS

CITY           SKY/WX    TMP DP  RH WIND       PRES   REMARKS
ARKADELPHIA    FAIR      65  63  93 S6        29.82R
6HR MIN TEMP:  64; 6HR MAX TEMP:  68;

CAMDEN         PTCLDY    68  63  83 S8        29.84S
TEXARKANA      CLOUDY    68  66  93 S17G24    29.80R
6HR MIN TEMP:  66; 6HR MAX TEMP:  72;

EL DORADO      CLEAR     66  64  93 S12       29.87R
6HR MIN TEMP:  65; 6HR MAX TEMP:  70;

DE QUEEN       CLOUDY    68  63  84 SE5       29.78R
6HR MIN TEMP:  66; 6HR MAX TEMP:  73;

$$

ARZ056-057-069-261300-
SOUTHEAST ARKANSAS

CITY           SKY/WX    TMP DP  RH WIND       PRES   REMARKS
PINE BLUFF     MOSUNNY   67  63  87 S15       29.85R
6HR MIN TEMP:  66; 6HR MAX TEMP:  69;

STUTTGART      MOSUNNY   70  55  60 S20       29.85R
6HR MIN TEMP:  68; 6HR MAX TEMP:  72;

MONTICELLO     SUNNY     67  63  87 S10       29.88R
6HR MIN TEMP:  66; 6HR MAX TEMP:  68;


$$






USA.gov is the U.S. government's official web portal to all federal, state and local government web resources and services.